Terminal Aerodrome Forecast
Issued by NWS Cheyenne, WY

Home | Current Version | Previous Version | Text Only | Print | Product List | Glossary On
Versions: 1 2 3 4 5 6 7 8 9 10 11 12 13 14 15 16 17 18 19 20 21 22 23 24 25 26 27 28
000
FTUS45 KCYS 211723
TAFCYS
TAF
KCYS 211723Z 2118/2218 27025G35KT P6SM BKN050 OVC120
     FM220000 33025G38KT 3SM -SHSNRA SCT030 OVC050
     FM220300 31020G28KT P6SM VCSH SCT040 BKN060=

USA.gov is the U.S. government's official web portal to all federal, state and local government web resources and services.